www.pogodaiklimat.ru
ПОГОДА в Ниинисало
Время
(UTC), дата
04 29.06
05 29.06
06 29.06
07 29.06
08 29.06
09 29.06
10 29.06
11 29.06
12 29.06
13 29.06
14 29.06
15 29.06
16 29.06
17 29.06
18 29.06
19 29.06
20 29.06
21 29.06
22 29.06
23 29.06
00 30.06
01 30.06
02 30.06
03 30.06
04 30.06
05 30.06
06 30.06
07 30.06
08 30.06
09 30.06
10 30.06
11 30.06
12 30.06
13 30.06
14 30.06
15 30.06
16 30.06
17 30.06
18 30.06
19 30.06
20 30.06
21 30.06
22 30.06
23 30.06
00 1.07
01 1.07
02 1.07
03 1.07
04 1.07
05 1.07
06 1.07
07 1.07
08 1.07
09 1.07
10 1.07
11 1.07
12 1.07
13 1.07
14 1.07
15 1.07
16 1.07
17 1.07
18 1.07
19 1.07
20 1.07
21 1.07
22 1.07
23 1.07
00 2.07
01 2.07
02 2.07
03 2.07
04 2.07
05 2.07
06 2.07
07 2.07
08 2.07
09 2.07
10 2.07
11 2.07
12 2.07
13 2.07
14 2.07
15 2.07
16 2.07
17 2.07
18 2.07
19 2.07
20 2.07
21 2.07
22 2.07
23 2.07
00 3.07
01 3.07
02 3.07
03 3.07
04 3.07
05 3.07
06 3.07
07 3.07
08 3.07
09 3.07
10 3.07
11 3.07
12 3.07
13 3.07
14 3.07
15 3.07
16 3.07
17 3.07
18 3.07
19 3.07
20 3.07
21 3.07
22 3.07
23 3.07
00 4.07
01 4.07
02 4.07
03 4.07
04 4.07
05 4.07
06 4.07
07 4.07
08 4.07
09 4.07
10 4.07
11 4.07
12 4.07
13 4.07
14 4.07
15 4.07
16 4.07
17 4.07
18 4.07
19 4.07
20 4.07
21 4.07
22 4.07
23 4.07
00 5.07
01 5.07
02 5.07
03 5.07
04 5.07
05 5.07
06 5.07
07 5.07
08 5.07
09 5.07
10 5.07
11 5.07
12 5.07
13 5.07
14 5.07
15 5.07
16 5.07
17 5.07
18 5.07
19 5.07
20 5.07
21 5.07
22 5.07
23 5.07
00 6.07
01 6.07
02 6.07
03 6.07
04 6.07
Ветер
(напр.,м/с)
Видим. Явления Облачность Т
(С)
Тd
(С)
f
(%)
Тe
(С)
Тes
(С)
Комфортность P
(гПа)
Po
(гПа)
Тmin
(С)
Tmax
(С)
R
(мм)
R24
(мм)
S
(см)
ЮВ 4-7
{8}
40 км 1/1
[]
+18.7 +9.4 55 +19 +20 1009.7 995.1
ЮВ 4-7
{8}
50 км 6/4 1500 м
[]
+18.6 +8.7 52 +19 +20 1009.6 995.0
ЮВ 5-9
{9}
45 км 6/6 1500 м
[]
+19.4 +8.2 48 +20 +21 1009.7 995.1 +17.2 +25.3
ЮВ 3-7
{8}
45 км 6/1 1500 м
[]
+19.4 +8.8 50 +20 +25 1009.0 994.4
ЮВ 5-8
{10}
45 км ясно +19.9 +8.0 46 +21 +26 комфорт 1009.0 994.5
ЮВ 4-6
{8}
13 км слаб. ливневой дождь со снегом 6/6 960 м
[]
+17.6 +11.5 67 +17 +21 1009.3 994.6 0.3
ЮВ 1-3
{6}
13 км сильн. ливневой дождь 9/4 1000 м
[]
+16.5 +13.6 83 +17 +23 1009.2 994.4 0.9
В 2-3
{3}
5000 м сильн. ливневой дождь 9/6 1320 м
[]
+15.9 +13.2 84 +16 +19 1008.6 993.8 2
ЮВ 3-5
{7}
29 км слаб. ливневой дождь со снегом 9/9 1230 м
[]
+14.8 +13.0 89 +14 +15 1008.0 993.2 3
ЮВ 2-4
{5}
4100 м сильн. ливневой дождь 9/9 1350 м
[]
+14.8 +13.6 93 +14 +16 1007.9 993.1 2
В 2-4
{5}
16 км сильн. дождь 9/9 1050 м
[]
+15.1 +14.1 94 +15 +16 1006.9 992.1 2
В 2-4
{4}
10 км дождь {ливн. дождь} 9/9 1000 м
[]
+15.4 +14.3 93 +15 +16 1006.4 991.7 1
В 3-4
{5}
13 км сильн. дождь 9/9 1000 м
[]
+15.1 +14.0 93 +14 +15 1005.7 991.0 3
В 3-5
{6}
16 км сильн. дождь 9/9 1500 м
[]
+15.1 +14.1 94 +14 +14 1004.9 990.2 0.3
ЮВ 3-5
{7}
17 км морось {ливн. дождь, дождь} 9/9 600 м
[]
+15.1 +14.5 96 +14 +14 1004.5 989.7 +14.7 +20.0 0.5
ЮВ 3-5
{6}
7000 м сильн. дождь 9/9 400 м
[]
+15.2 +14.7 97 +14 +14 1003.7 989.0 0.6
Ю 2-3
{5}
8000 м слаб. ливневой дождь 9/9 120 м
[]
+15.5 +15.1 97 +15 +15 1003.4 988.7 0.3
Ю 3-4
{4}
7000 м в посл. час снег {ливн. дождь, дождь} 9/9 180 м
[]
+15.6 +15.2 97 +15 +15 1003.1 988.4
Ю 2-3
{4}
2900 м дымка 9/9 90 м
[]
+15.4 +15.0 97 +15 +15 1002.7 988.0
Ю 2-4
{4}
3500 м дымка 9/9 90 м
[]
+15.2 +14.9 98 +15 +15 1001.9 987.2
Ю 2-3
{4}
500 м сильная пыльная буря {ливн. дождь, дождь} ?/? +15.0 +14.7 98 +15 +15 1000.8 986.1
Ю 1-2
{3}
2700 м в посл. час туман 9/9 120 м
[]
+15.1 +14.7 97 +16 +16 999.9 985.3
Ю 2-4
{4}
2300 м дымка 9/9 <50 м
[]
+15.2 +14.8 97 +15 +15 999.5 984.8
Ю 2-4
{4}
3800 м в посл. час морось 9/9 180 м
[]
+15.1 +14.7 97 +15 +15 998.8 984.2
Ю 2-3
{4}
7000 м дымка 9/9 150 м
[]
+15.5 +15.0 97 +15 +15 997.8 983.2
Ю 2-3
{4}
9000 м дымка 9/9 150 м
[]
+16.1 +15.3 95 +16 +16 996.7 982.1
Ю 2-3
{3}
12 км {метель} 6/6 270 м
[]
+16.4 +15.3 93 +16 +19 995.8 981.3 +15.0 +16.4
Ю 3-4
{4}
14 км 6/6 210 м
[]
+16.8 +15.4 91 +17 +19 995.0 980.5
Ю 2-4
{4}
26 км 4/4 400 м
[]
+17.9 +15.5 86 +18 +25 994.2 979.7
ЮЗ 2-4
{4}
35 км 4/4 540 м
[]
+17.9 +14.1 78 +18 +26 993.3 978.9
ЮЗ 2-4
{4}
35 км 4/1 300 м
[]
+18.2 +14.4 78 +19 +29 992.6 978.2
З 4-7
{7}
35 км 1/1 600 м
[]
+19.3 +12.5 65 +21 +29 комфорт 991.5 977.1
ЮЗ 4-6
{6}
45 км 4/1 600 м
[]
+18.3 +11.0 62 +18 +25 991.0 976.6
З 4-7
{8}
40 км 6/4
[]
+17.4 +11.2 67 +17 +21 990.7 976.3
ЮЗ 3-6
{7}
40 км 6/6
[]
+16.9 +11.1 69 +17 +20 990.3 975.9
ЮЗ 3-6
{7}
45 км 9/9
[]
+16.6 +11.0 69 +16 +17 990.1 975.6
ЮЗ 4-6
{8}
45 км 6/6
[]
+16.5 +10.8 69 +16 +17 989.5 975.0
ЮЗ 5-7
{9}
45 км 6/6
[]
+16.4 +11.3 72 +15 +16 989.0 974.5
Ю 4-6
{8}
50 км 6/6
[]
+16.1 +11.2 73 +15 +16 988.5 974.0 +16.1 +19.5
Ю 4-5
{7}
50 км 9/9
[]
+15.8 +11.6 76 +15 +15 988.2 973.8
Ю 3-5
{6}
50 км 6/1 600 м
[]
+15.3 +11.8 80 +15 +15 988.3 973.8
Ю 4-6
{6}
40 км дождь 6/6 700 м
[]
+14.7 +12.0 84 +13 +13 988.4 973.8
Ю 4-6
{8}
30 км в посл. час дождь 9/4 800 м
[]
+13.5 +12.8 96 +12 +12 988.3 973.7 0.8
Ю 3-6
{8}
24 км в посл. час дождь 9/9 240 м
[]
+13.6 +13.1 97 +12 +12 988.1 973.5 0.1
Ю 3-5
{6}
30 км {ливн. дождь, дождь} 6/6 660 м
[]
+13.3 +12.9 97 +12 +12 987.6 973.0
Ю 4-7
{10}
3100 м сильн. ливневой дождь 9/9 800 м
[]
+12.8 +12.4 97 +11 +11 987.5 972.9 8
Ю 4-6
{6}
18 км 9/9 150 м
[]
+13.4 +13.1 98 +12 +12 987.4 972.8
Ю 3-5
{6}
18 км в посл. час дождь со снегом {ливн. дождь} 9/9 150 м
[]
+13.5 +13.1 97 +12 +12 987.4 972.8 3
Ю 1-2
{6}
7000 м сильн. ливневой дождь 9/9 750 м
[]
+13.1 +12.7 97 +13 +13 987.8 973.2 4
ЮВ 4-7
{7}
11 км сильн. дождь 9/9 1000 м
[]
+12.8 +12.3 97 +11 +11 988.1 973.5 7
ЮВ 3-5
{6}
6000 м дождь {ливн. дождь} 9/9 1470 м
[]
+12.5 +12.1 97 +11 +11 988.1 973.4 +12.0 +16.1 5
Ю 3-4
{5}
10 км сильн. дождь 9/9 1000 м
[]
+12.9 +12.5 97 +11 +12 988.5 973.9 0.9
ЮЗ 2-5
{5}
23 км в посл. час дождь 9/6 450 м
[]
+13.9 +13.3 96 +13 +16 988.9 974.4 0.9
З 3-4
{5}
14 км в посл. час дождь со снегом {ливн. дождь} 9/9 180 м
[]
+13.9 +13.4 97 +13 +14 989.6 975.1 1
З 4-6
{6}
29 км 9/9 570 м
[]
+14.7 +13.0 90 +13 +14 990.4 975.8
З 4-7
{8}
35 км 10/10 480 м
[]
+13.6 +11.5 87 +12 +12 991.3 976.7
ЮЗ 5-8
{9}
35 км {ливн. дождь, дождь} 6/6 800 м
[]
+14.4 +10.3 76 +13 +15 991.9 977.3
З 5-9
{10}
45 км 4/4 1020 м
[]
+15.2 +8.7 65 +14 +17 992.9 978.3
З 5-8
{10}
50 км 1/1 600 м
[]
+14.0 +7.1 63 +12 +16 993.9 979.2
З 3-6
{10}
50 км 6/6 1000 м
[]
+14.4 +7.5 63 +14 +15 994.6 980.0
З 3-6
{8}
50 км 9/9 1200 м
[]
+14.1 +7.2 63 +13 +14 995.4 980.7
З 4-9
{9}
45 км 1/1 1000 м
[]
+14.4 +6.0 57 +13 +14 996.0 981.3
З 3-6
{8}
50 км 1/1 1000 м
[]
+13.7 +6.8 63 +13 +13 996.6 982.0 +12.5 +16.0
ЮЗ 2-4
{6}
50 км ясно +12.3 +6.4 67 +12 +12 997.3 982.5
ЮЗ 2-3
{4}
50 км ясно +10.7 +6.2 74 +9 +9 998.0 983.2
ЮЗ 2-3
{3}
50 км ясно +9.3 +6.2 81 +8 +8 998.4 983.5
Ю 2-3
{3}
50 км ясно +8.4 +6.5 88 +6 +6 999.1 984.1
Ю 2-3
{4}
50 км ясно +7.6 +6.2 91 +5 +5 999.6 984.5
Ю 2-2
{3}
50 км ясно +6.6 +5.8 95 +4 +4 999.9 984.8
Ю 2-3
{3}
50 км ясно +6.4 +5.7 95 +4 +4 1000.3 985.2
Ю 2-3
{3}
50 км ясно +6.5 +5.8 95 +4 +4 1000.8 985.7
Ю 1-2
{3}
50 км ясно +8.0 +6.6 91 +7 +8 1001.0 986.0
штиль 0-1
{2}
50 км ясно +11.5 +7.8 78 +11 +13 1001.2 986.3
штиль 0
{1}
50 км ясно +13.7 +6.3 61 +13 +18 1001.6 986.9
ЮВ 2-3
{4}
45 км ясно +14.8 +6.0 56 +15 +20 1002.0 987.3 +6.3 +15.0
Ю 1-3
{3}
35 км ясно +16.1 +5.3 49 +17 +27 1002.2 987.6
ЮЗ 2-4
{6}
35 км 1/1
[]
+17.0 +2.8 39 +17 +27 1002.5 987.9
СЗ 2-5
{5}
35 км 1/1 1500 м
[]
+18.3 +4.7 41 +19 +30 1002.4 987.9
Ю 3-5
{5}
45 км 6/4 1500 м
[]
+18.6 +2.7 35 +19 +24 1002.3 987.8
Ю 3-5
{5}
45 км 1/1 1500 м
[]
+19.5 +4.3 37 +20 +30 1002.2 987.8
Ю 3-5
{6}
50 км 9/6 1500 м
[]
+18.7 +4.6 39 +19 +22 1002.2 987.7
ЮВ 3-6
{6}
45 км 6/1 1500 м
[]
+18.6 +5.7 43 +19 +25 1001.9 987.4
ЮВ 4-6
{6}
50 км 9/6 1500 м
[]
+18.1 +5.4 43 +18 +19 1001.6 987.1
Ю 4-7
{7}
50 км ливневой дождь 9/9 1500 м
[]
+17.7 +6.0 46 +17 +18 1001.5 986.9
Ю 5-9
{9}
35 км сильн. ливневой дождь 9/9 1000 м
[]
+14.9 +9.8 72 +13 +14 1001.7 987.0
ЮВ 3-7
{10}
26 км сильн. ливневой дождь 9/9 1230 м
[]
+12.9 +10.8 87 +11 +12 1001.5 986.7 0.5
ЮВ 3-6
{7}
50 км в посл. час дождь со снегом {ливн. дождь} 9/6 1110 м
[]
+13.2 +11.1 87 +12 +12 1001.0 986.2 +12.8 +19.5 0.1
ЮВ 4-8
{8}
50 км в посл. час морось 9/6 270 м
[]
+13.5 +12.1 91 +12 +12 1000.7 986.0
ЮВ 4-8
{8}
30 км сильн. ливневой дождь 9/9 330 м
[]
+13.2 +12.5 96 +11 +11 1000.7 985.9 0.8
Ю 4-6
{8}
18 км в посл. час дождь со снегом {ливн. дождь} 9/6 210 м
[]
+13.0 +12.6 97 +11 +11 1000.6 985.8 0.4
ЮВ 4-6
{6}
19 км 9/9 330 м
[]
+13.2 +12.7 97 +11 +11 1000.2 985.5
Ю 4-6
{8}
13 км в посл. час дождь 9/9 150 м
[]
+13.3 +12.9 97 +11 +11 1000.1 985.3
Ю 4-7
{8}
15 км {ливн. дождь, дождь} 9/9 210 м
[]
+13.3 +12.8 97 +11 +11 1000.1 985.3
ЮЗ 2-4
{6}
16 км 4/4 570 м
[]
+12.5 +11.8 95 +11 +11 1000.5 985.7
ЮЗ 3-5
{5}
26 км ясно +11.5 +11.0 97 +10 +10 1000.8 986.0
ЮЗ 3-6
{6}
40 км {дождь} 9/6 200 м
[]
+11.7 +10.8 94 +10 +10 1001.4 986.5
ЮЗ 4-6
{7}
50 км 9/9 960 м
[]
+11.9 +9.9 88 +10 +10 1001.6 986.8
ЮЗ 4-8
{8}
45 км 6/6 1080 м
[]
+12.7 +8.6 76 +11 +12 1002.1 987.3
ЮЗ 5-9
{10}
50 км {дождь} 6/6 1110 м
[]
+12.9 +7.7 71 +11 +12 1002.6 987.8 +11.4 +13.5
ЮЗ 5-9
{11}
50 км 9/9 900 м
[]
+13.4 +7.9 69 +12 +12 1003.1 988.3
ЮЗ 6-11
{11}
45 км 6/6 960 м
[]
+13.8 +7.6 66 +12 +14 1003.8 989.0
ЮЗ 7-12
{12}
50 км 6/6 1170 м
[]
+14.3 +6.6 60 +12 +14 1004.5 989.7
ЮЗ 6-10
{11}
45 км 4/4 1440 м
[]
+15.4 +6.9 57 +14 +17 1005.0 990.3
ЮЗ 6-10
{12}
40 км 4/4 1260 м
[]
+16.2 +7.9 58 +15 +18 1005.2 990.5
ЮЗ 6-10
{12}
40 км 1/1 1000 м
[]
+16.6 +7.0 53 +16 +20 1005.3 990.7
ЮЗ 5-8
{12}
50 км 6/6 1320 м
[]
+16.2 +7.7 57 +15 +17 1005.7 991.0
ЮЗ 6-10
{10}
45 км 1/1 1000 м
[]
+16.6 +5.7 48 +16 +19 1005.9 991.2
ЮЗ 6-9
{11}
50 км 1/1 1000 м
[]
+16.0 +5.5 50 +15 +17 1006.1 991.4
ЮЗ 4-6
{9}
50 км 1/0
[]
+16.4 +6.3 51 +16 +18 1006.2 991.5
Ю 4-7
{8}
50 км ясно +16.3 +4.1 44 +16 +17 1006.2 991.5
ЮЗ 2-4
{6}
50 км ясно +16.0 +5.3 49 +16 +17 1006.2 991.5 +13.0 +17.7
штиль 0-2
{3}
50 км 6/6
[]
+15.1 +5.7 53 +15 +15 1006.3 991.5
ЮВ 1-2
{3}
50 км 4/1
[]
+13.6 +6.8 63 +14 +14 1006.4 991.5
Ю 3-5
{5}
50 км 9/4 1500 м
[]
+13.4 +7.8 69 +12 +12 1006.5 991.7
СВ 2-3
{3}
50 км 9/4 1500 м
[]
+12.2 +7.6 73 +11 +11 1006.2 991.3
ЮВ 3-4
{5}
50 км 6/0
[]
+11.6 +8.2 80 +10 +10 1006.0 991.1
ЮВ 3-6
{5}
50 км {ливн. дождь, дождь} 4/4 2000 м
[]
+11.2 +9.6 90 +9 +9 1005.5 990.6
Ю 5-6
{6}
45 км 6/1 1500 м
[]
+11.2 +10.1 93 +8 +8 1005.2 990.3
Ю 4-5
{6}
35 км 4/4 1500 м
[]
+11.3 +10.3 94 +9 +9 1005.1 990.2
Ю 3-5
{6}
40 км ясно +12.0 +10.8 92 +10 +11 1005.0 990.1
Ю 3-6
{8}
45 км ясно +13.4 +10.1 80 +12 +14 1004.7 989.9
Ю 4-7
{7}
50 км ясно +14.7 +9.4 71 +14 +16 1004.5 989.8
Ю 5-8
{8}
35 км 1/1 600 м
[]
+16.0 +9.2 64 +15 +18 1004.0 989.3 +11.0 +16.1
Ю 5-9
{9}
50 км 9/6 1500 м
[]
+15.9 +8.7 62 +15 +16 1003.7 989.0
Ю 4-6
{8}
45 км 4/1 1000 м
[]
+16.3 +8.1 58 +16 +21 1002.9 988.3
Ю 4-6
{11}
11 км дождь 9/9 930 м
[]
+12.8 +11.4 91 +11 +12 1003.2 988.4 2
ЮЗ 1-3
{5}
12 км сильн. дождь 9/9 1500 м
[]
+12.1 +11.4 95 +12 +14 1002.9 988.0 1
Ю 3-7
{7}
14 км сильн. дождь 9/9 720 м
[]
+13.3 +11.9 91 +12 +13 1002.0 987.2 0.9
Ю 4-7
{10}
9000 м дождь 9/9 1000 м
[]
+12.5 +11.4 93 +10 +11 1001.2 986.4 0.5
Ю 5-10
{10}
19 км слаб. ливневой дождь 9/9 480 м
[]
+13.2 +12.4 95 +11 +12 1000.8 986.0 0.7
ЮЗ 4-7
{8}
40 км в посл. час дождь 9/9 1350 м
[]
+13.7 +12.3 91 +12 +13 1000.6 985.8 0.2
ЮЗ 4-8
{9}
50 км ливневой дождь 9/9 1080 м
[]
+13.2 +12.2 94 +11 +12 1000.6 985.8 0.1
ЮЗ 4-8
{8}
50 км 9/9 420 м
[]
+13.7 +11.6 87 +12 +12 1000.5 985.7
З 3-5
{8}
50 км в посл. час морось 9/4 1170 м
[]
+13.7 +11.3 85 +13 +13 1000.5 985.8
ЮЗ 3-5
{6}
50 км {ливн. дождь, дождь} 1/1 600 м
[]
+13.6 +10.1 79 +12 +13 1000.5 985.8 +11.9 +16.4
З 2-4
{7}
50 км ясно +11.9 +8.2 78 +11 +11 1001.0 986.2
ЮЗ 1-3
{4}
50 км ясно +10.3 +8.6 89 +10 +10 1001.5 986.6
ЮЗ 2-3
{3}
50 км ясно +9.2 +8.2 93 +7 +7 1001.6 986.6
Ю 2-3
{3}
50 км ясно +8.4 +7.7 95 +6 +6 1001.9 986.8
ЮЗ 2-3
{4}
50 км ясно +8.1 +7.4 95 +6 +6 1002.0 986.9
штиль 0-2
{3}
30 км ясно +7.0 +6.4 96 +6 +6 1002.1 986.9
Ю 1-2
{2}
9000 м дымка ясно +6.1 +5.6 97 +5 +5 1001.9 986.8
Ю 2-3
{3}
35 км 1/0
[]
+6.5 +6.0 97 +4 +4 1002.1 986.9
Ю 2-3
{3}
50 км 4/0
[]
+7.3 +6.8 97 +5 +5 1002.1 987.0
Ю 2-3
{4}
50 км 4/0
[]
+9.2 +7.9 92 +7 +9 1002.1 987.1
Ю 2-3
{4}
50 км 9/0
[]
+11.1 +8.3 83 +10 +12 1001.8 986.9
Ю 2-4
{4}
50 км 1/1
[]
+12.2 +8.4 78 +11 +16 1001.7 986.9 +6.0 +13.7
З 3-6
{6}
45 км 6/6
[]
+14.2 +8.4 68 +13 +16 1001.5 986.8
ЮЗ 3-6
{6}
40 км 1/0
[]
+15.6 +8.4 62 +15 +23 1001.4 986.8
Ю 4-7
{7}
40 км 4/4 1380 м
[]
+17.3 +7.7 53 +17 +22 1001.1 986.5
З 2-4
{6}
40 км 1/1 1000 м
[]
+17.4 +6.9 50 +18 +30 опасность
простуды
1000.8 986.3
Ю 1-4
{5}
35 км 6/6 1000 м
[]
+18.4 +5.6 43 +20 +26 1000.2 985.7
Ю 2-5
{5}
40 км 4/0
[]
+18.0 +6.1 46 +19 +28 999.6 985.1
Ю 4-7
{7}
45 км 4/4
[]
+18.2 +5.4 43 +18 +22 999.3 984.8
Ю 4-6
{7}
45 км 4/4 2000 м
[]
+18.0 +5.7 44 +18 +21 998.3 983.8
ЮВ 4-7
{8}
50 км ливневой дождь 9/1 1500 м
[]
+16.7 +6.9 52 +16 +18 997.3 982.7
ЮВ 3-5
{7}
12 км сильн. ливневой дождь 9/9 1470 м
[]
+14.1 +9.8 75 +13 +13 996.2 981.5 0.3
В 3-6
{7}
17 км сильн. ливневой дождь 9/9 1230 м
[]
+12.3 +10.5 89 +11 +11 994.2 979.5 2
В 4-7
{7}
4400 м слаб. ливневой дождь со снегом 10/10 800 м
[]
+11.8 +11.1 95 +10 +10 991.5 976.8 +11.7 +19.0 3
В 4-7
{10}
4100 м сильн. ливневой дождь 10/10 150 м
[]
+12.0 +11.6 97 +10 +10 989.7 975.0 10
В 3-6
{9}
6000 м сильн. дождь 10/10 270 м
[]
+12.3 +11.9 97 +11 +11 987.8 973.2 2
Ю 4-6
{6}
16 км в посл. час дождь со снегом {ливн. дождь} 10/10 120 м
[]
+13.7 +13.3 97 +12 +12 987.1 972.6 0.6
Ю 5-8
{9}
17 км слаб. ливневой дождь 10/10 240 м
[]
+15.2 +15.0 99 +14 +14 986.7 972.3
ЮЗ 5-10
{10}
19 км в посл. час дождь 9/9 240 м
[]
+15.1 +14.6 97 +14 +14 987.0 972.5 0.3
Ю 5-8
{11}
28 км в посл. час снег {ливн. дождь, дождь} 10/10 450 м
[]
+14.1 +13.4 96 +12 +12 987.5 973.0
Ю 4-8
{9}
28 км 6/6 1000 м
[]
+12.9 +12.0 94 +11 +11 987.7 973.1
Ю 4-6
{7}
26 км 1/1 2000 м
[]
+12.1 +11.5 96 +10 +10 987.9 973.2
Ю 4-7
{7}
35 км 6/6 870 м
[]
+12.3 +11.4 94 +10 +10 987.6 973.0
Ю 4-7
{8}
35 км 9/9 900 м
[]
+12.8 +11.4 91 +11 +11 987.4 972.8
Местоположение метеостанции Ниинисало (Финляндия): широта 61.84 долгота 22.46 высота над уровнем моря 122 м.
В архиве по умолчанию представлена погода в Ниинисало за последнюю неделю. Архивные данные за месяц целиком и за предыдущие месяцы, начиная с января 2011 года, Вы можете получить, выбрав интересующий диапазон дат из раскрывающегося списка и нажав кнопку "Найти!".
*Определитесь, кто Вы:
Внимание! Время в таблицах - всемирное. Для получения местного времени необходимо прибавить поправку, которая равна 1 ч.
Смотрите также архив погоды в соседних городах и на ближайших метеорологических станциях:
Партнеры нашего сайта:      
Пояснения к столбцам:
  • Ветер - указаны скорость ветра в м/с - средняя за 10 мин, порывы в срок и между сроками (в фигурных скобках) и направление, откуда дует ветер: С - северный,
  • СВ - северо-восточный, В - восточный, ЮВ - юго-восточный, Ю - южный, ЮЗ - юго-западный, З - западный, СЗ - северо-западный.
  • Видимость - горизонтальная дальность видимости в метрах или километрах. При видимости от 1 до 10 км при отсутствии осадков обычно наблюдается дымка, при ухудшении видимости до 1 км и менее - туман. В сухую погоду видимость может ухудшаться дымом, пылью или мглою.
  • Явления - указаны атмосферные явления, наблюдавшиеся в срок или в последний час перед сроком; фигурными скобками обозначены явления, наблюдавшиеся между сроками (за 1-3 часа до срока); квадратными скобками обозначены град или гололедные отложения с указанием их диаметра в мм.
  • Облачность - указаны через наклонную черту общая и нижняя облачность в баллах и высота нижней границы облаков в метрах; квадратными скобками обозначены формы облаков: Ci - перистые, Cs - перисто-слоистые, Cc - перисто-кучевые, Ac - высококучевые, As - высокослоистые, Sc - слоисто-кучевые, Ns - слоисто-дождевые, Cu - кучевые, Cb - кучево-дождевые. Подробнее классификацию облаков см. в Атласе облаков (PDF).
  • T - Температура воздуха - температура, измеренная на высоте 2 м над землей.
  • Td - Температура точки росы - температура, при понижении до которой содержащийся в воздухе водяной пар достигнет насыщения.
  • f - Относительная влажность воздуха - влажноcть воздуха, измеренная на высоте 2 м над землей.
  • Te - Эффективная температура - температура, которую ощущает одетый по сезону человек в тени. Характеристика душности погоды. При расчете учитывается влияние влажности воздуха и скорости ветра на теплоощущения человека.
  • Tes - Эффективная температура на солнце - температура, которую ощущает человек, с поправкой на солнечный нагрев. Характеристика знойности погоды. Зависит от высоты солнца над горизонтом, облачности и скорости ветра. Ночью, в пасмурную погоду, а также при ветре 12 м/с и более поправка равна нулю.
  • P - Атмосферное давление - приведенное к уровню моря атмосферное давление.
  • Po - Атмосферное давление - измеренное на уровне метеостанции атмосферное давление.
  • Tmin - Минимальная температура - минимум температуры воздуха на высоте 2 м над землей.
  • Tmax - Максимальная температура - максимум температуры воздуха на высоте 2 м над землей.
  • R - Количество осадков - Количество выпавших осадков за период времени, мм. При наведении курсора мыши на число - период времени, за который выпало указанное количество осадков.
  • R24 - Количество осадков - Количество выпавших осадков за 24 часа, мм.
  • S - Снежный покров - Высота снежного покрова, см. При наведении курсора мыши на число - состояние снежного покрова и степень покрытия местности в баллах.